Weather observations for the past three days for
Havana International Airport
Imperial (Metric)
Date Time (cdt) Wind (mph) Vis. (mi.) Weather Sky Cond. Temperature (ºF) Relative Humidity Wind Chill (°F) Heat Index (°F) Pressure Precipitation (in)
Air Dwpt 6 hour altimeter (in) sea level (mb) 1 hr 3 hr 6 hr
Max. Min.
01 05:50 Vrbl 1 0.00 Patches Fog FEW030 75.2 73.4 94% 74 0 0.0
01 04:50 Calm 0.00 A Few Clouds FEW030 75.2 75.2 100% 73 0 0.0
01 03:50 SW 2 0.00 A Few Clouds FEW030 77 77 100% 78 0 0.0
01 02:50 Vrbl 2 0.00 A Few Clouds FEW030 77 77 100% 78 0 0.0
01 01:50 NE 1 0.00 A Few Clouds FEW030 77 77 100% 78 0 0.0
01 00:50 Vrbl 1 0.00 A Few Clouds FEW030 78.8 77 94% 83 0 0.0
31 23:50 Vrbl 3 0.00 A Few Clouds FEW030 78.8 78.8 100% 83 0 0.0
31 22:50 NE 6 0.00 A Few Clouds FEW030 80.6 78.8 94% 88 0 0.0
31 21:50 NE 7 0.00 A Few Clouds FEW030 82.4 78.8 89% 92 0 0.0
31 20:50 NE 9 0.00 A Few Clouds FEW030 84.2 78.8 84% 96 0 0.0
31 18:50 NE 10 0.00 Partly Cloudy FEW030 SCT200 87.8 77 70% 100 0 0.0
31 17:50 NE 10 0.00 Partly Cloudy FEW030 SCT200 89.6 75.2 63% 100 0 0.0
31 16:50 N 12 0.00 Thunderstorm in Vicinity FEW018CB SCT025 89.6 75.2 63% 100 0 0.0
31 15:50 N 13 0.00 Partly Cloudy FEW020CB SCT025 93.2 75.2 56% 105 0 0.0
31 14:50 N 12 0.00 Partly Cloudy FEW020TCU SCT025 93.2 77 59% 107 0 0.0
31 13:50 Vrbl 6 0.00 Partly Cloudy SCT030 93.2 77 59% 107 0 0.0
31 12:50 Vrbl 6 0.00 Partly Cloudy SCT030 91.4 77 63% 105 0 0.0
31 11:50 E 7 0.00 Partly Cloudy SCT030 89.6 77 67% 103 0 0.0
31 10:50 NE 8 0.00 A Few Clouds FEW030 87.8 77 70% 100 0 0.0
31 09:50 E 5 0.00 A Few Clouds FEW030 86 78.8 79% 99 0 0.0
31 08:50 E 6 0.00 A Few Clouds FEW030 82.4 78.8 89% 92 0 0.0
31 07:50 Vrbl 2 0.00 A Few Clouds FEW030 77 77 100% 78 0 0.0
31 06:50 Vrbl 2 0.00 A Few Clouds FEW030 77 77 100% 78 0 0.0
31 05:50 NE 3 0.00 A Few Clouds FEW030 75.2 75.2 100% 73 0 0.0
31 04:50 Vrbl 1 0.00 A Few Clouds FEW030 77 77 100% 78 0 0.0
31 03:50 Vrbl 2 0.00 A Few Clouds FEW030 77 77 100% 78 0 0.0
31 02:50 Vrbl 3 0.00 A Few Clouds FEW030 78.8 77 94% 83 0 0.0
31 01:50 Vrbl 1 0.00 A Few Clouds FEW030 78.8 78.8 100% 83 0 0.0
31 00:50 Vrbl 1 0.00 A Few Clouds FEW030 78.8 78.8 100% 83 0 0.0
30 23:50 NE 2 0.00 A Few Clouds FEW030 78.8 77 94% 83 0 0.0
30 22:50 Vrbl 1 0.00 A Few Clouds FEW030 78.8 78.8 100% 83 0 0.0
30 21:50 NE 3 0.00 A Few Clouds FEW030 80.6 78.8 94% 88 0 0.0
30 20:50 NE 5 0.00 A Few Clouds FEW030 80.6 78.8 94% 88 0 0.0
30 19:50 NE 5 0.00 A Few Clouds FEW030 80.6 77 89% 87 0 0.0
30 18:50 NE 6 0.00 A Few Clouds FEW030 80.6 75.2 84% 86 0 0.0
30 17:50 NE 7 0.00 A Few Clouds FEW030 78.8 71.6 79% 82 0 0.0
30 16:50 NW 9 0.00 Thunderstorm FEW018CB BKN025 80.6 73.4 79% 85 0 0.0
30 15:50 Vrbl 1 0.00 Mostly Cloudy FEW020TCU BKN025 87.8 78.8 75% 102 0 0.0
30 14:50 N 8 0.00 Mostly Cloudy FEW020TCU BKN025 89.6 78.8 71% 105 0 0.0
30 13:50 Vrbl 5 0.00 Mostly Cloudy FEW020TCU BKN025 91.4 75.2 59% 103 0 0.0
30 12:50 Vrbl 3 0.00 Mostly Cloudy BKN025 89.6 73.4 59% 98 0 0.0
30 11:50 SE 6 0.00 Mostly Cloudy BKN025 89.6 75.2 63% 100 0 0.0
30 10:50 SE 5 0.00 Partly Cloudy SCT030 87.8 77 70% 100 0 0.0
30 09:50 E 5 0.00 A Few Clouds FEW030 84.2 77 79% 94 0 0.0
30 08:50 Vrbl 1 0.00 A Few Clouds FEW030 82.4 77 84% 91 0 0.0
30 07:50 Calm 0.00 A Few Clouds FEW025TCU 73.4 73.4 100% 0 0.0
30 06:50 Vrbl 1 0.00 A Few Clouds FEW030 73.4 73.4 100% 0 0.0
30 05:50 NE 3 0.00 A Few Clouds FEW030 73.4 73.4 100% 0 0.0
30 04:50 N 5 0.00 A Few Clouds FEW030 75.2 73.4 94% 74 0 0.0
30 03:50 Vrbl 2 0.00 A Few Clouds FEW030 75.2 73.4 94% 74 0 0.0
30 02:50 NE 3 0.00 A Few Clouds FEW030 75.2 73.4 94% 74 0 0.0
30 01:50 Vrbl 1 0.00 A Few Clouds FEW030 75.2 73.4 94% 74 0 0.0
30 00:50 N 3 0.00 A Few Clouds FEW030 75.2 73.4 94% 74 0 0.0
29 23:50 Vrbl 1 0.00 A Few Clouds FEW030 75.2 73.4 94% 74 0 0.0
29 22:50 Vrbl 1 0.00 Partly Cloudy FEW030 SCT200 75.2 73.4 94% 74 0 0.0
29 21:50 NE 3 0.00 Mostly Cloudy SCT030 BKN200 77 73.4 89% 78 0 0.0
29 20:50 NW 3 0.00 Mostly Cloudy SCT030 BKN200 77 73.4 89% 78 0 0.0
29 19:50 Vrbl 2 0.00 Mostly Cloudy SCT030 BKN200 77 73.4 89% 78 0 0.0
29 18:50 E 8 0.00 Mostly Cloudy SCT025 BKN200 77 73.4 89% 78 0 0.0
29 17:50 NE 10 0.00 Mostly Cloudy FEW020TCU BKN025 78.8 71.6 79% 82 0 0.0
29 16:50 N 5 0.00 Mostly Cloudy FEW018CB BKN025 84.2 78.8 84% 96 0 0.0
29 15:50 NW 6 0.00 Mostly Cloudy FEW020TCU BKN025 80.6 77 89% 87 0 0.0
29 14:50 E 6 0.00 Thunderstorm Light Rain BKN018CB 84.2 75.2 74% 92 0 0.0
29 13:50 Vrbl 3 0.00 Mostly Cloudy FEW018CB BKN025 93.2 73.4 53% 103 0 0.0
29 12:50 SE 5 0.00 Mostly Cloudy FEW020TCU BKN025 91.4 75.2 59% 103 0 0.0
29 11:50 E 5 0.00 Mostly Cloudy FEW020TCU BKN025 89.6 75.2 63% 100 0 0.0
29 10:50 E 6 0.00 Partly Cloudy SCT030 87.8 77 70% 100 0 0.0
29 09:50 E 7 0.00 A Few Clouds FEW030 86 78.8 79% 99 0 0.0
29 08:50 Vrbl 3 0.00 A Few Clouds FEW025TCU 80.6 77 89% 87 0 0.0
29 07:50 Vrbl 1 0.00 A Few Clouds FEW025TCU FEW030 73.4 73.4 100% 0 0.0
Date Time (cdt) Wind (mph) Vis. (mi.) Weather Sky Cond. Air Dwpt Max. Min. Relative Humidity Wind Chill (°F) Heat Index (°F) altimeter (in) sea level (mb) 1 hr 3 hr 6 hr
6 hour
Temperature (ºF) Pressure Precipitation (in)